GEFSSGP_con_probscp_216.txt.gz
Probability
6 5 4 4 2 1 0 0 0 0 0 0 0 0 0 0 0 0 0 0 0 1 2 3 3 3 3 1 0 0 0 0 0 0 0 0 1 0 0 1 2 3 3 4 4 3 2 2 1
6 5 4 3 1 0 0 0 0 0 0 0 0 0 0 0 0 0 0 0 1 2 2 3 3 3 3 2 1 0 0 0 0 0 0 1 1 0 0 1 2 3 3 3 3 2 2 1 1
5 4 3 1 0 0 0 0 0 0 0 0 0 0 0 0 0 0 0 0 1 2 3 4 4 3 3 3 2 1 0 0 0 0 1 2 2 1 1 1 3 3 3 2 2 2 2 2 2
2 2 1 0 0 0 0 0 0 0 0 0 0 0 0 0 0 0 0 0 0 1 1 3 4 4 4 4 3 1 0 0 0 0 1 2 3 3 1 1 2 2 2 2 2 3 3 3 2
0 0 0 0 0 0 0 0 0 0 0 0 0 0 0 0 0 0 0 0 0 0 0 2 4 5 6 6 5 3 1 1 1 1 2 3 3 2 1 0 1 1 1 1 2 3 2 2 1
0 0 0 0 0 0 0 0 0 0 0 0 0 0 0 0 0 0 0 0 0 0 0 1 3 5 6 6 5 3 2 2 2 2 2 2 2 1 0 0 0 0 0 1 1 1 1 1 0
0 0 0 0 0 0 0 0 0 0 0 0 0 0 0 0 0 0 0 0 0 0 0 1 2 3 3 3 3 2 1 1 1 1 1 1 1 0 0 0 1 0 0 0 0 0 0 0 0
0 0 0 0 0 0 0 0 0 0 0 0 0 0 1 1 1 0 0 0 0 0 0 0 1 1 1 1 2 1 1 1 1 0 0 0 0 0 0 0 0 0 0 0 0 0 0 0 0
0 0 0 0 0 0 0 0 0 0 0 0 0 0 1 2 1 0 0 0 0 0 0 0 0 0 0 0 1 2 2 2 1 0 0 0 0 0 0 0 0 0 0 0 0 0 0 0 0
0 0 0 0 0 0 0 0 0 0 0 0 0 0 1 1 1 0 0 0 0 0 0 0 0 0 0 0 1 2 2 2 1 1 0 0 0 0 0 0 1 0 0 0 0 0 1 0 0
0 0 0 0 0 0 0 0 0 0 0 0 1 2 2 1 0 0 0 0 0 0 0 0 0 0 0 0 0 1 2 2 2 1 0 0 0 0 0 0 0 0 0 0 0 0 0 0 0
0 0 0 0 0 0 0 0 0 0 0 0 2 4 4 1 0 0 0 0 0 0 0 0 0 0 1 1 1 1 1 2 1 1 1 0 0 0 0 0 0 0 0 0 0 0 0 0 0
0 0 0 0 0 0 0 0 0 0 0 0 2 4 3 1 0 0 0 0 0 0 0 0 0 1 2 2 1 1 1 0 1 1 2 1 0 0 0 0 0 0 0 0 0 0 0 0 1
0 0 0 0 0 0 0 0 0 0 0 0 1 2 2 1 0 0 1 1 1 1 1 0 1 2 3 3 3 2 1 0 0 2 3 2 1 1 0 0 0 0 0 0 0 0 0 0 1
0 0 0 0 0 0 0 0 0 0 0 0 1 2 3 3 1 1 2 2 2 2 1 0 1 2 3 3 3 2 1 0 1 2 3 3 3 2 1 0 0 0 0 0 0 0 0 0 1
0 0 0 0 0 0 0 0 0 0 0 0 1 3 5 6 5 4 4 3 2 1 1 1 1 3 3 3 3 1 1 1 2 3 4 5 4 3 2 1 0 0 0 0 0 0 0 0 0
0 0 0 0 0 0 0 1 1 0 0 0 1 3 7 9 9 8 6 3 1 1 3 4 5 5 4 4 3 2 2 4 5 5 5 5 5 4 2 1 0 0 0 0 0 0 0 0 0
0 0 0 0 0 0 0 1 2 1 0 0 1 3 7 10 12 12 9 4 2 4 7 10 10 9 8 7 7 6 5 7 7 7 6 5 5 3 2 2 1 0 0 0 0 0 0 0 0
0 0 0 0 0 0 0 1 2 1 1 1 2 4 6 8 11 14 13 10 9 11 15 16 16 15 14 13 12 10 9 9 9 8 6 5 4 3 3 3 3 1 1 1 0 0 0 0 1
0 0 0 0 0 0 0 1 2 1 1 1 3 6 7 7 10 14 18 20 19 19 20 21 21 21 20 18 15 14 12 11 9 8 6 4 3 3 4 6 5 4 3 2 1 1 2 2 2
0 0 0 0 0 0 0 0 1 1 0 0 2 6 7 6 8 12 19 25 26 24 22 22 24 25 24 20 17 15 14 13 10 7 6 4 4 4 6 7 7 6 6 4 3 3 4 4 5
0 0 0 0 0 0 0 0 0 1 1 0 2 5 5 5 7 10 14 21 25 23 20 20 23 26 26 23 19 17 16 13 10 7 6 6 6 7 7 7 8 8 8 7 6 5 6 6 6
0 0 0 0 0 0 0 0 0 1 1 1 3 5 4 3 5 7 10 12 15 17 17 18 23 28 30 27 23 19 17 13 9 8 8 8 8 9 8 8 9 10 10 9 10 9 8 8 8
0 0 0 0 0 0 0 0 0 0 0 1 3 4 2 2 4 7 8 7 9 13 15 18 26 36 39 35 28 23 20 15 12 11 10 9 10 10 9 9 10 11 11 11 14 14 11 10 10
0 0 0 0 0 0 0 0 0 0 0 0 2 2 2 2 5 8 9 9 12 15 17 20 29 38 43 40 33 27 22 18 15 13 12 11 11 11 10 9 10 11 12 13 15 15 13 12 12
0 0 0 0 0 0 0 0 0 0 0 1 1 2 3 5 8 10 10 12 15 19 21 25 30 35 38 38 34 29 24 20 16 14 12 11 11 11 11 9 8 8 10 12 14 15 15 15 14
0 0 0 0 0 0 0 0 0 0 0 1 1 2 4 7 10 12 12 14 18 21 24 27 31 34 36 35 32 31 28 24 19 15 12 10 10 11 10 8 6 5 7 11 15 17 18 18 18
0 0 0 0 0 0 0 0 1 1 1 0 0 1 4 7 10 13 15 17 20 24 26 27 30 34 37 34 31 30 30 29 24 19 15 12 10 12 12 9 7 5 5 9 14 18 18 18 18
0 0 0 0 0 0 0 1 3 4 2 1 0 3 6 8 11 16 20 23 26 27 26 26 28 33 36 34 30 28 27 28 25 21 17 14 11 12 14 12 9 7 6 7 10 13 14 15 15
0 0 0 0 0 0 1 2 5 5 3 1 1 5 9 11 15 20 24 27 30 29 26 25 27 32 35 34 31 28 25 25 23 19 16 15 12 12 14 14 10 8 7 7 7 8 10 12 14

GEFSSGP_con_probscp_222.txt.gz
Probability
7 12 22 29 22 8 1 0 0 0 0 0 0 0 0 0 0 0 0 0 0 0 0 0 0 0 0 0 0 0 0 0 0 0 0 0 0 0 0 1 2 3 2 2 3 3 1 0 0
8 13 20 20 12 4 0 0 0 0 0 0 0 0 0 0 0 0 0 0 0 1 1 0 0 0 0 0 0 0 0 0 0 0 0 0 1 1 0 1 2 3 2 2 3 3 1 0 0
9 12 13 9 4 1 0 0 0 0 0 0 0 0 0 0 0 0 0 0 0 1 1 0 0 0 0 0 0 0 0 0 0 0 0 1 2 2 1 0 1 2 2 2 3 2 1 0 0
12 11 7 3 1 0 0 0 0 0 0 0 0 0 0 0 0 0 0 0 0 1 1 0 0 1 0 0 0 0 0 0 0 1 1 2 3 3 2 1 1 2 3 2 2 2 1 0 0
11 9 4 1 0 0 0 0 0 0 0 0 0 0 0 0 0 0 0 0 0 1 2 1 1 1 0 0 0 0 0 1 1 2 2 2 3 3 2 1 2 3 3 3 2 1 0 0 0
6 4 2 0 0 0 0 0 0 0 0 0 0 0 0 0 0 1 1 1 1 2 3 3 3 2 1 0 0 0 1 1 2 2 2 2 2 2 1 1 1 2 3 2 1 1 0 0 0
2 1 0 0 0 0 0 0 0 0 0 0 0 0 0 0 0 1 2 1 2 3 3 3 3 3 2 1 1 1 2 2 1 1 1 1 1 1 0 0 0 0 1 1 0 0 0 0 0
1 0 0 0 0 0 0 0 0 0 0 0 0 0 0 0 0 1 2 2 2 3 3 3 5 6 5 3 3 3 3 2 1 0 0 0 0 0 0 0 0 0 0 0 0 0 0 0 0
0 0 0 0 0 0 0 0 0 0 0 0 0 0 0 0 0 0 1 2 1 2 3 5 8 8 7 5 4 4 3 2 1 0 0 0 0 0 0 0 0 0 0 0 0 1 1 1 1
0 0 0 0 0 0 0 0 0 0 0 0 1 1 1 0 0 0 0 1 1 2 4 7 9 8 6 5 5 5 4 3 1 1 0 0 0 0 0 0 0 0 0 0 1 2 2 2 2
0 0 0 0 0 0 0 0 0 0 0 1 2 2 1 0 0 0 1 3 4 5 6 8 9 7 5 5 5 5 4 4 3 3 1 0 0 0 0 1 1 1 0 1 2 2 2 1 1
0 0 0 0 0 0 0 0 0 0 1 2 3 2 1 0 0 1 3 5 7 8 8 8 8 7 5 4 4 4 4 5 6 5 3 1 0 0 0 1 2 1 0 1 1 1 1 0 0
0 0 0 0 0 0 0 0 0 0 1 2 3 2 1 0 0 1 4 7 9 9 8 8 8 8 6 5 5 5 5 5 7 7 5 2 1 0 0 1 1 1 0 0 0 0 1 1 1
0 0 0 0 0 0 0 0 0 0 0 1 3 3 2 1 2 4 6 8 9 9 9 9 10 11 9 7 5 5 6 7 8 8 7 4 3 2 1 0 0 0 0 0 0 0 1 2 2
0 0 0 0 0 0 0 0 0 0 0 1 3 5 5 5 6 7 10 11 12 12 12 11 12 13 12 8 5 5 6 7 9 10 10 7 5 4 3 1 0 0 0 1 1 1 1 3 3
0 0 0 0 0 0 1 1 0 0 0 0 3 6 8 10 11 13 14 16 17 18 17 14 12 14 13 10 7 6 7 8 9 10 11 11 8 7 6 4 1 1 0 0 1 1 2 3 3
0 0 0 0 0 0 1 1 1 0 0 1 4 8 13 16 18 19 19 20 22 23 22 18 16 17 15 12 10 10 10 9 9 10 12 12 11 9 9 7 4 2 1 1 1 3 5 6 5
0 0 0 0 0 0 0 1 2 2 1 3 8 13 19 24 25 24 24 24 27 29 28 26 25 23 19 15 13 13 13 12 13 14 15 14 13 11 10 9 6 4 3 3 4 7 11 11 9
0 0 0 0 0 0 0 2 4 3 1 4 9 16 24 29 31 32 31 31 34 37 39 38 34 30 24 19 16 16 16 16 17 19 20 18 14 11 11 10 8 6 5 5 6 11 14 13 12
0 0 0 0 0 0 1 4 5 3 2 4 8 14 22 30 36 41 41 40 41 44 48 47 43 37 30 24 21 20 20 19 19 21 23 22 17 13 12 13 11 9 7 7 9 12 12 11 10
0 0 0 0 0 0 1 4 5 3 2 4 6 11 19 28 37 45 48 46 44 47 51 51 50 45 38 32 28 26 26 23 21 22 25 25 22 18 16 16 15 12 10 9 9 10 10 9 8
0 0 0 0 0 0 0 2 4 3 2 3 6 10 17 25 33 41 48 49 46 47 51 54 55 53 47 38 33 31 31 26 22 23 27 29 27 23 19 18 17 16 14 11 8 8 8 9 9
0 0 0 0 0 0 0 1 4 5 5 4 7 11 14 20 27 35 46 50 47 46 50 55 58 58 53 44 38 35 33 28 24 25 28 30 29 24 21 19 18 17 16 14 10 7 8 10 10
0 0 0 0 0 0 0 1 5 7 7 5 6 9 11 14 20 30 41 48 46 44 48 55 61 61 57 49 44 41 38 33 29 29 31 31 28 25 23 21 20 20 19 17 14 10 9 9 10
0 0 0 0 0 0 0 1 5 7 6 5 6 9 11 12 19 27 37 43 44 45 51 59 64 64 60 55 49 47 44 38 34 33 33 30 26 25 25 24 23 22 20 18 15 13 12 11 12
0 0 0 0 0 0 0 2 4 6 6 4 6 9 11 15 23 30 35 39 43 48 54 60 65 66 62 57 53 50 47 41 35 33 31 28 24 22 24 26 25 23 20 17 16 16 16 16 15
0 0 0 0 0 0 1 3 4 4 5 5 7 10 13 18 27 33 36 39 45 51 54 57 62 64 61 56 52 51 49 43 37 35 31 25 21 21 24 27 27 24 19 18 19 19 18 19 18
0 0 0 0 0 0 1 3 3 3 6 8 10 14 17 20 27 33 36 41 48 53 53 52 56 58 57 54 50 47 45 42 39 37 29 22 20 23 26 28 28 25 20 20 21 21 19 18 19
0 0 0 0 0 0 1 2 2 3 6 11 14 18 21 24 28 33 37 41 46 51 52 51 53 54 53 51 47 43 41 39 38 34 26 21 22 25 27 28 27 24 20 19 21 21 18 16 17
0 0 0 0 0 0 1 2 1 2 7 12 17 20 25 27 30 35 40 42 44 49 52 52 53 53 52 50 46 42 40 37 34 30 26 23 23 25 27 27 26 23 19 18 19 20 17 14 14

GEFSSGP_con_probscp_228.txt.gz
Probability
6 2 1 1 0 0 0 0 0 1 2 2 1 0 0 0 0 0 0 0 0 0 0 0 0 0 0 0 0 0 0 0 0 0 0 0 0 0 0 0 0 0 0 0 0 0 0 1 1
3 3 3 2 0 0 0 0 1 2 2 2 1 0 0 0 0 0 0 0 0 0 0 0 0 0 0 0 0 0 0 0 0 0 0 0 0 0 0 0 0 0 0 0 0 0 0 0 1
2 4 4 2 0 0 0 0 1 2 3 1 0 0 0 0 0 0 0 0 0 0 0 0 0 0 0 0 0 0 0 0 0 0 0 0 0 0 0 0 0 0 0 0 0 0 0 0 0
2 2 2 1 0 0 0 0 1 2 2 1 0 0 0 1 1 0 0 0 0 0 0 0 0 0 0 0 0 0 0 0 0 0 0 0 0 0 0 0 0 1 1 0 0 0 0 0 0
0 0 0 0 0 0 0 0 1 1 1 0 0 0 1 2 3 2 1 1 1 1 0 1 1 1 0 0 0 0 0 0 0 0 0 0 0 1 1 1 1 2 2 1 0 0 0 0 0
0 0 0 0 0 0 0 2 3 2 1 0 0 0 1 3 4 3 3 2 2 2 1 1 1 1 0 0 0 0 0 0 0 0 0 0 0 1 2 2 3 3 2 1 0 0 0 0 0
0 0 0 0 0 0 1 2 4 3 1 0 0 0 1 2 4 4 3 3 2 2 1 0 0 1 1 1 1 1 1 0 0 0 0 0 0 1 1 2 3 2 1 0 0 0 0 0 0
0 0 0 0 0 0 1 2 2 2 2 1 1 1 1 3 6 6 4 2 1 1 1 0 0 0 0 1 2 3 2 1 0 1 0 0 0 0 0 1 2 2 1 0 0 0 0 0 0
0 0 0 0 0 0 1 2 1 1 2 3 2 2 2 5 8 8 6 3 2 1 1 0 0 0 0 1 2 3 3 1 1 1 0 0 0 0 0 0 1 2 2 1 1 0 0 0 0
0 0 0 0 0 0 1 2 2 2 3 4 4 4 4 5 7 8 8 7 6 3 1 0 0 0 0 0 1 2 3 3 2 1 0 0 0 0 0 0 1 1 1 1 1 0 0 0 0
0 0 0 0 0 0 0 1 3 4 4 5 6 6 6 6 6 7 8 10 10 7 4 2 2 1 1 1 2 3 3 3 2 1 0 0 0 0 0 0 0 0 0 1 1 0 0 0 0
0 0 0 0 0 0 0 1 2 4 5 6 6 6 6 6 6 6 7 9 11 10 7 5 4 3 3 3 4 3 3 3 2 0 0 0 0 0 0 0 0 0 0 0 0 0 0 0 0
0 0 0 0 0 0 0 1 2 5 7 6 5 4 5 6 6 6 7 9 10 11 10 8 6 5 5 5 5 4 4 3 2 1 0 0 0 0 0 0 0 0 0 0 0 0 0 0 0
0 0 0 0 0 0 1 2 3 6 7 6 3 3 4 5 7 7 8 8 9 11 13 12 11 8 7 5 5 5 5 4 4 1 0 0 0 0 0 0 0 0 0 0 0 0 0 0 0
0 0 0 0 0 0 1 2 3 5 6 4 2 2 3 4 6 9 9 8 9 12 15 15 14 12 8 5 4 5 5 4 3 1 0 0 0 0 0 0 0 0 0 0 0 0 0 0 0
0 0 0 0 0 0 0 1 1 3 4 3 2 2 3 3 5 8 9 10 11 13 14 15 16 13 8 4 4 4 4 3 2 1 1 2 1 1 1 0 0 0 0 0 0 0 0 0 0
0 0 0 0 0 0 0 0 1 2 3 2 4 6 6 6 7 8 9 11 13 14 14 15 15 11 6 4 4 4 3 3 2 2 3 4 3 2 2 1 0 0 0 0 0 0 0 0 0
0 0 0 0 0 0 0 0 0 2 3 4 6 11 12 10 8 8 9 13 16 16 15 15 14 10 6 4 4 4 4 4 4 4 5 5 4 4 3 2 0 0 0 0 0 0 0 0 0
0 0 0 0 0 0 1 1 1 4 7 7 8 13 16 13 9 10 13 18 20 17 15 15 14 11 9 8 7 6 6 6 6 6 6 5 4 4 5 4 2 1 0 0 0 0 0 0 0
0 0 0 0 0 1 2 3 3 6 9 10 9 11 14 14 13 15 20 27 26 20 17 17 16 15 14 13 12 10 8 7 7 7 5 3 3 4 5 5 3 2 1 0 0 0 0 0 1
0 0 0 0 0 1 3 3 4 6 8 9 9 9 11 15 17 20 25 32 32 27 23 23 22 20 19 19 16 14 11 9 8 7 5 2 3 4 4 4 3 2 1 0 0 0 1 1 2
0 0 0 0 0 0 1 2 3 4 6 8 10 10 11 14 17 21 25 30 33 32 30 30 29 26 25 23 20 17 14 11 9 8 5 3 2 3 4 4 3 1 0 0 1 1 2 3 3
0 0 0 0 0 0 0 1 2 3 5 8 11 12 13 13 15 19 22 25 28 31 33 36 36 33 31 28 24 20 17 13 10 9 7 4 2 2 3 4 3 1 1 1 2 3 3 3 3
0 0 0 0 0 0 0 0 1 2 6 11 13 13 13 14 15 16 18 21 27 32 37 40 40 37 35 32 28 24 20 17 13 11 7 4 2 1 1 2 2 2 2 3 3 3 3 3 3
0 0 0 0 0 0 0 0 0 2 7 13 14 12 13 17 17 15 18 24 31 38 42 42 41 38 35 33 30 26 22 19 16 12 7 4 2 0 0 1 1 2 3 3 3 3 3 3 3
0 0 0 0 0 0 0 0 0 3 9 14 13 12 17 22 20 18 21 29 35 39 42 41 39 37 36 34 31 27 23 20 16 12 8 4 1 1 1 1 1 3 4 4 3 3 3 3 3
0 0 0 0 0 0 0 0 1 3 9 12 11 13 21 25 23 22 25 30 33 34 37 39 37 37 38 37 34 30 24 20 16 12 8 4 2 2 2 2 3 4 5 5 4 3 3 3 3
0 0 0 0 0 0 0 0 1 3 7 9 11 15 22 26 25 24 25 29 32 32 35 38 38 38 40 39 36 31 25 21 16 12 9 6 5 5 4 4 4 5 6 6 4 4 4 4 4
0 0 0 0 0 0 0 0 1 4 7 10 13 20 26 28 25 23 25 28 32 34 37 40 40 40 39 37 34 29 24 19 15 11 9 8 7 7 5 5 5 6 6 7 6 6 6 6 6
0 0 0 0 0 0 0 1 2 6 10 14 18 25 31 30 24 22 24 28 32 35 39 42 42 41 37 34 32 27 21 18 14 12 10 9 7 7 6 6 6 6 7 8 9 8 7 7 6

GEFSSGP_con_probscp_234.txt.gz
Probability
1 1 0 0 0 0 0 0 0 0 0 0 0 0 0 0 0 0 0 0 0 0 0 1 2 2 1 0 0 0 0 0 0 0 0 0 0 0 0 0 0 1 0 0 0 0 0 0 0
1 0 0 0 0 0 0 0 0 0 0 0 0 0 0 0 0 0 0 0 0 0 0 1 2 3 1 1 1 0 0 0 0 0 0 0 0 0 0 0 1 1 1 0 0 0 0 0 0
0 0 0 0 0 0 0 0 0 0 0 0 0 0 0 0 0 0 0 0 0 0 0 1 2 3 3 2 1 0 0 0 0 0 0 0 0 0 0 1 2 2 1 0 0 0 0 0 0
0 0 0 0 0 0 0 0 0 0 0 0 0 0 0 0 0 0 0 0 0 0 0 1 2 3 3 2 1 0 0 0 0 0 0 0 0 0 1 2 2 2 1 0 0 0 0 0 0
0 0 0 0 0 0 0 0 0 0 0 0 0 0 0 0 0 0 0 0 0 0 0 1 2 3 3 2 0 0 0 0 0 0 0 0 1 1 2 1 2 3 2 1 0 0 0 0 1
0 0 0 0 0 0 0 0 0 0 0 0 0 0 0 0 0 0 0 0 0 0 0 1 2 3 3 2 1 0 1 1 1 0 0 1 2 3 2 2 2 3 3 2 1 0 0 0 1
0 0 0 0 0 0 0 0 1 1 1 0 0 0 0 0 0 0 0 0 0 0 0 0 1 2 2 2 1 1 2 2 2 1 1 2 3 3 3 2 3 3 3 2 1 0 0 0 1
0 0 0 0 0 0 0 0 1 1 1 0 0 0 0 0 0 0 0 0 0 0 0 0 0 1 1 1 2 2 2 2 2 2 2 3 3 3 2 2 2 2 2 1 1 0 0 0 0
0 0 0 0 0 0 1 1 1 0 0 0 0 0 0 0 0 0 0 0 0 0 0 0 0 0 0 1 2 2 2 1 1 2 3 3 2 2 1 1 1 2 1 0 0 0 0 0 0
0 0 0 0 0 0 1 1 0 0 0 0 0 0 0 0 0 0 0 0 0 0 0 0 0 0 0 0 1 2 1 0 1 2 2 1 1 1 1 1 1 1 1 0 0 0 0 0 0
0 0 0 0 0 0 0 0 0 0 0 0 0 1 1 1 1 1 1 0 0 0 0 0 0 0 0 0 0 1 1 0 0 1 1 0 0 0 0 1 1 1 0 0 0 0 0 0 0
0 0 0 0 0 0 0 0 0 0 0 0 1 2 2 2 2 3 3 1 1 0 0 0 0 0 0 0 0 0 0 0 0 0 0 0 0 0 0 0 0 0 0 0 0 0 0 0 0
0 0 0 0 0 0 0 0 0 0 0 1 3 4 3 3 4 5 5 4 3 2 0 0 0 0 0 0 0 0 0 0 0 0 0 0 0 0 0 0 0 0 0 0 0 0 0 0 0
0 0 0 0 0 0 0 0 0 0 0 2 4 5 4 3 4 4 5 6 5 3 1 0 0 0 0 0 0 0 0 0 0 0 0 0 0 0 0 0 0 0 0 0 0 0 0 0 0
0 0 0 0 0 0 1 0 0 0 0 2 3 4 3 3 2 3 3 5 5 4 1 0 0 0 0 0 0 0 0 0 0 1 1 1 0 0 0 0 0 0 0 0 0 0 0 0 0
0 0 0 0 0 0 0 0 0 0 0 1 1 2 1 1 2 2 2 3 5 4 1 0 0 0 0 0 0 0 0 0 0 1 1 1 0 0 0 1 1 1 0 0 0 0 0 0 0
0 0 0 0 0 0 0 0 0 0 0 0 0 0 1 2 2 2 2 3 5 4 3 1 1 1 0 0 0 0 0 0 0 1 2 2 1 1 1 2 2 1 0 0 0 0 0 0 0
0 0 0 0 0 0 0 0 0 0 0 0 0 0 1 2 3 3 3 3 4 3 3 2 1 1 0 0 0 0 0 1 1 2 4 4 3 2 2 3 2 1 0 0 0 0 0 0 1
0 0 0 0 0 0 0 0 0 0 0 0 0 0 1 2 3 4 3 3 2 2 2 2 1 0 0 0 0 0 0 1 2 3 5 5 4 2 2 2 2 1 0 0 0 0 0 1 2
0 0 0 0 0 0 0 0 0 0 0 0 0 0 1 2 3 3 3 2 2 2 2 2 1 0 0 0 0 1 1 2 3 3 4 4 2 1 1 1 1 0 0 0 0 0 1 2 3
0 0 0 0 0 0 0 0 1 0 0 0 0 1 2 3 3 2 2 2 3 3 3 3 1 0 0 0 1 3 3 3 4 3 3 3 2 0 0 0 0 0 0 0 0 0 1 3 3
0 0 0 0 0 0 0 0 1 1 0 0 1 2 3 3 2 1 1 3 5 4 4 3 3 2 1 0 1 4 5 5 5 4 3 3 2 0 0 0 0 0 0 0 0 1 2 3 3
0 0 0 0 0 0 0 0 0 1 0 1 3 4 3 2 1 1 2 5 6 4 4 4 4 4 3 3 3 5 7 7 5 4 4 3 1 0 0 0 0 0 0 0 1 2 3 3 3
0 0 0 0 0 0 0 0 0 0 0 2 4 5 3 2 2 2 3 5 5 4 4 6 6 6 6 6 6 8 9 9 7 6 5 4 1 0 0 0 0 0 1 1 2 3 3 3 3
0 0 0 0 0 0 0 0 0 0 0 2 5 5 4 3 4 5 4 4 5 4 5 7 8 7 7 7 8 10 11 11 9 7 5 3 1 0 0 0 1 1 2 3 3 3 3 3 3
0 0 0 0 0 0 0 0 0 0 0 2 4 4 3 5 7 7 5 3 4 4 6 8 9 9 9 9 11 13 14 13 10 7 4 3 1 0 0 1 2 3 3 3 3 3 3 3 3
0 0 0 0 0 0 0 0 0 1 1 1 3 3 3 6 8 7 4 2 3 5 8 10 11 12 12 13 14 15 15 14 11 6 4 2 1 0 1 2 2 3 3 3 3 3 2 2 2
0 0 0 0 0 0 0 0 1 2 2 1 3 4 4 7 9 8 3 2 4 7 10 13 14 15 15 15 16 16 16 14 11 8 4 2 0 0 1 1 1 2 2 2 2 1 1 1 1
0 0 0 0 0 0 0 1 2 3 3 2 4 6 7 7 8 7 4 3 6 11 14 16 16 17 16 15 16 17 15 13 11 9 6 3 1 0 0 1 1 1 1 1 1 1 0 0 0
0 0 0 0 0 0 0 1 2 3 3 3 5 8 9 8 8 6 4 5 9 13 16 18 18 17 15 15 16 16 14 12 10 9 8 5 1 0 0 0 1 1 0 1 2 2 1 0 0